• Processing (Info)

  • MPEC 2024-O78 : 2024 OK

    The following Minor Planet Electronic Circular may be linked-to from your own Web pages, but must not otherwise be redistributed electronically.

    A form allowing access to any MPEC is at the bottom of this page.


    Read MPEC 2024-O77 Read MPEC 2024-O79


    M.P.E.C. 2024-O78                                 Issued 2024 July 29, 01:20 UT
    
         The Minor Planet Electronic Circulars contain information on unusual
             minor planets, routine data on comets and natural satellites,
             and occasional editorial announcements.  They are published
        on behalf of Division F of the International Astronomical Union by the
              Minor Planet Center, Smithsonian Astrophysical Observatory,
                              Cambridge, MA 02138, U.S.A.
    			  
                 Prepared using the Tamkin Foundation Computer Network
    
                                  MPC@CFA.HARVARD.EDU
                URL https://www.minorplanetcenter.net/    ISSN 1523-6714
    
                                     2024 OK                                 
    
    
    Observations:
         K24O00K*KC2024 07 27.98216 21 36 37.46 -07 36 53.5                XEO078L51
         K24O00K KC2024 07 27.98323 21 36 39.21 -07 37 07.6          19.4 GXEO078L51
         K24O00K KC2024 07 27.98435 21 36 41.09 -07 37 22.7          19.5 GXEO078L51
         K24O00K KC2024 07 28.00340 21 37 13.20 -07 41 36.2          19.6 GXEO078L51
         K24O00K KC2024 07 28.00640 21 37 18.19 -07 42 15.6          19.6 GXEO078L51
         K24O00K KC2024 07 28.00944 21 37 23.36 -07 42 55.2          18.9 GXEO078L51
         K24O00K KC2024 07 28.03235521 38 16.272-07 48 39.42         19.0 GVEO078J95
         K24O00K KC2024 07 28.03908421 38 27.730-07 50 09.53         19.5 GVEO078J95
         K24O00K KC2024 07 28.04571921 38 39.077-07 51 38.95         19.2 GVEO078J95
         K24O00K KC2024 07 28.31859 21 47 03.691-08 51 38.38         19.7 GVEO078H36
         K24O00K KC2024 07 28.32728 21 47 18.523-08 53 35.09         20.4 GVEO078H36
         K24O00K KC2024 07 28.33598 21 47 33.298-08 55 31.51         20.1 GVEO078H36
         K24O00K  C2024 07 28.41247221 49 34.42 -09 03 00.5                WEO078X09
         K24O00K  C2024 07 28.41947121 49 46.77 -09 04 30.3                WEO078X09
         K24O00K KC2024 07 28.91646 22 05 59.87 -11 04 54.0          19.3 GXEO078L51
         K24O00K KC2024 07 28.91847 22 06 03.47 -11 05 21.1          19.7 GXEO078L51
         K24O00K KC2024 07 28.92047 22 06 06.95 -11 05 47.5          19.4 GXEO078L51
         K24O00K KC2024 07 28.94873022 07 05.97 -11 11 48.5          20.0 GVEO078104
         K24O00K KC2024 07 28.95347822 07 14.43 -11 12 51.7                VEO078104
         K24O00K KB2024 07 28.96203422 07 33.47 -11 14 41.9          20.1 GXEO078I93
         K24O00K KB2024 07 28.96863122 07 45.28 -11 16 10.2          19.2 GXEO078I93
         K24O00K KB2024 07 28.97123622 07 49.95 -11 16 46.1          20.2 GXEO078I93
         K24O00K KB2024 07 29.01281022 09 04.32 -11 25 53.9          19.3 GXEO078958
         K24O00K KB2024 07 29.01776722 09 13.13 -11 26 59.8          19.7 GXEO078958
         K24O00K KB2024 07 29.02272522 09 21.86 -11 28 05.7          19.8 GXEO078958
    
    Observer details:
    104 San Marcello Pistoiese.  Observers P. Bacci, M. Maestripieri.  Measurers
        P. Bacci, L. Tesi, G. Fagioli.  0.60-m F4 Reflector + CCD.
    958 Observatoire de Dax.  Observer P. Dupouy.  0.50-m f/4.5 Reflector + CMO.
    H36 Sandlot Observatory, Scranton.  Observer G. Hug.  0.56-m f/4.25 Newtonian
        Reflector + CCD.
    I93 St Pardon de Conques.  Observer F. Losse.  0.40-m f/3.7 reflector + CMO.
    J95 Great Shefford.  Observer P. Birtwhistle.  0.41-m f/6.3 Schmidt-Cassegrain
        + CCD.
    L51 MARGO, Nauchnyi.  Observer G. Borisov.  0.50-m f/1.9 reflector + CCD.
    X09 Deep Random Survey, Rio Hurtado.  Observers A. Schnabel, D. Ruhela.
        Measurer S. Deen.  0.43-m reflector + CMOS.
    
    Orbital elements:
    2024 OK                                                  Earth MOID = 0.0163 AU
    Epoch 2024 Oct. 17.0 TT = JDT 2460600.5                 Veres                   
    M  43.95978              (2000.0)            P               Q                  
    n   0.64319398     Peri.  192.24697     +0.74971619     +0.65677747             
    a   1.3291523      Node   126.39402     -0.59834023     +0.72508365             
    e   0.2271250      Incl.    5.77878     -0.28269172     +0.20711604             
    P   1.53           H   27.52          G   0.15           U   7                  
    Residuals in seconds of arc
    240727 L51  1.6+  0.7-    240728 H36  0.0   0.4-    240728 104  0.5-  0.6+
    240727 L51  0.8+  0.5-    240728 H36  0.3+  0.5-    240728 I93  0.4+  0.1-
    240727 L51  0.7+  0.6-    240728 H36  0.6-  0.3-    240728 I93  0.3+  0.0
    240728 L51  0.7-  0.2+    240728 X09  1.0+  0.7-    240728 I93  0.5+  1.0-
    240728 L51  2.1-  0.8+    240728 X09  0.3-  0.8+    240729 958  0.2-  0.3+
    240728 L51  1.9-  1.7+    240728 L51  0.3-  0.4-    240729 958  0.4+  0.1+
    240728 J95  0.6+  0.1-    240728 L51  0.4+  0.7-    240729 958  0.1-  0.1-
    240728 J95  0.1-  0.3+    240728 L51  0.4-  0.5-
    240728 J95  0.1-  0.0     240728 104  0.6-  0.3+
    
    Ephemeris:
    2024 OK                  a,e,i = 1.33, 0.23, 6                   q = 1.0273
    Date    TT    R. A. (2000) Decl.     Delta      r    Elong.  Phase     V
    2024 06 29    17 31 13.5 +17 40 20   0.08339 1.0786   136.5    40.5    23.9
    ...
    2024 07 14    18 09 06.8 +16 20 20   0.04402 1.0490   136.7    41.7    22.5
    ...
    2024 07 22    19 21 03.8 +09 15 00   0.02576 1.0380   148.5    30.8    21.0
    ...
    2024 07 28    21 37 12.4 -07 34 14   0.01786 1.0322   160.0    19.6    19.8
    2024 07 29    22 08 29.2 -11 16 15   0.01766 1.0315   155.9    23.7    19.9
    2024 07 30    22 40 27.8 -14 46 10   0.01786 1.0308   150.4    29.1    20.1
    ...
    2024 08 05    01 13 39.9 -25 57 20   0.02561 1.0279   121.0    57.8    21.7
    ...
    2024 08 13    02 37 48.9 -27 47 29   0.04306 1.0276   108.4    69.3    23.2
    ...
    2024 08 28    03 22 18.0 -27 33 15   0.07800 1.0378   108.7    67.2    24.4
    
    M. P. C. Staff               (C) Copyright 2024 MPC           M.P.E.C. 2024-O78
    


    Read MPEC 2024-O77 Read MPEC 2024-O79


    MPEC number:

    Enter an MPEC number in one of the following forms:

    • 1997-B01 (the full form)
    • J97B01 (the packed version of the full form)
    • B01 (the abbreviated form)